Preview of NWS' New Version of Forecast
This preview is not operational and should not be used for support decisions.

Regional Weather Roundup (RWR)

Issued by National Weather Service (NWS)

                            
000
ASUS44 KMEG 210900
RWRTN 
TENNESSEE HOURLY STATE WEATHER ROUNDUP
NATIONAL WEATHER SERVICE MEMPHIS TN
400 AM CDT SAT SEP 21 2019

TNZ002-004-019-021-049-052-054-088>092-211000-
WEST TENNESSEE
  
CITY           SKY/WX    TMP DP  RH WIND       PRES   REMARKS
MEMPHIS INTL   FAIR      72  63  73 S6        30.15S                  
NWS MEMPHIS      N/A     70 N/A N/A MISG        N/A                   
JACKSON        FAIR      65  62  90 CALM      30.19S                  
DYERSBURG      FAIR      67  64  90 SE5       30.18S                  
$$

TNZ008-025-027-028-033-062-065-066-211000-
NORTH MIDDLE TENNESSEE
  
CITY           SKY/WX    TMP DP  RH WIND       PRES   REMARKS
NASHVILLE      FAIR      69  57  65 S5        30.25R                  
CLARKSVILLE    FAIR      65  62  90 SE5       30.22R                  
SMYRNA         FAIR      65  60  84 CALM      30.26R                  
CROSSVILLE     FAIR      60  55  83 CALM      30.31S                  
$$

TNZ061-075-076-078-094-096-097-211000-
SOUTH MIDDLE TENNESSEE
  
CITY           SKY/WX    TMP DP  RH WIND       PRES   REMARKS
$$

TNZ017-018-042-046-047-211000-
NORTHEAST TENNESSEE
  
CITY           SKY/WX    TMP DP  RH WIND       PRES   REMARKS
TRI CITIES     MOCLDY    59  57  93 CALM      30.31R                  
$$

TNZ012-013-036-069-073-074-211000-
CENTRAL EAST TENNESSEE
  
CITY           SKY/WX    TMP DP  RH WIND       PRES   REMARKS
KNOXVILLE      FAIR      67  59  75 CALM      30.27R                  
OAK RIDGE      FAIR      66  60  81 CALM      30.29S                  
$$

TNZ083-085-099-211000-
SOUTHEAST TENNESSEE
  
CITY           SKY/WX    TMP DP  RH WIND       PRES   REMARKS
CHATTANOOGA    FAIR      64  59  83 CALM      30.28R                  
$$

SKY/WX REPORTED AS FAIR MEANS FEW OR NO CLOUDS BELOW
12 THOUSAND FEET.